Regional Weather Roundup
Issued by NWS Mobile, AL

Home | Current Version | Previous Version | Text Only | Print | Product List | Glossary On
Versions: 1 2 3 4 5 6 7 8 9 10 11 12 13 14 15 16 17 18 19 20 21 22 23 24 25 26 27 28 29 30 31 32 33 34 35 36 37 38 39 40 41 42 43
000
ASUS44 KMOB 270310
RWRMOB
REGIONAL WEATHER ROUNDUP
NATIONAL WEATHER SERVICE MOBILE AL
900 PM CST FRI DEC 26 2014

NOTE: "FAIR" INDICATES FEW OR NO CLOUDS BELOW 12,000 FEET WITH NO
      SIGNIFICANT WEATHER AND/OR OBSTRUCTIONS TO VISIBILITY.

  * THESE STATIONS ARE PART OF THE UNIVERSITY OF SOUTH ALABAMA
    MESONET AND ARE NOT UNDER NWS OR FAA QUALITY CONTROL.

ALZ061>064-270400-
COASTAL ALABAMA

CITY           SKY/WX    TMP DP  RH WIND       PRES   REMARKS
MOBILE REG APT CLOUDY    57  46  66 E15       30.23S
BROOKLEY FIELD CLOUDY    58  48  69 E10       30.24F
USA CAMPUS*      N/A     57  46  67 E6        30.23F
DOG RIVER*     NOT AVBL


CITY           SKY/WX    TMP DP  RH WIND       PRES   REMARKS
MOUNT VERNON*  NOT AVBL
SARALAND*      NOT AVBL
BAY MINETTE*   NOT AVBL
LOXLEY*          N/A     54  46  76 E7        30.24F
ROBERTSDALE*     N/A     54  45  71 SE3       30.24F
FAIRHOPE*        N/A     55  46  71 E9        30.23S
ELBERTA*         N/A     55  48  76 E5        30.23F
FOLEY*           N/A     43  43 100 CALM      30.25S
GRAND BAY*       N/A     59  50  72 E7        30.20F
DAUPHIN ISLND* NOT AVBL
BON SCOUR NWR* NOT AVBL
GULF SHORES    CLOUDY    57  50  76 E9        30.23F

$$

ALZ051>060-270400-
INTERIOR SOUTHWEST AND SOUTH CENTRAL ALABAMA

CITY           SKY/WX    TMP DP  RH WIND       PRES   REMARKS
GREENVILLE     CLEAR     41  38  89 CALM      30.28R
EVERGREEN      CLEAR     43  40  89 CALM      30.28S
CASTLEBERRY*   NOT AVBL
ATMORE*          N/A     50  46  87 E6        30.28S
DIXIE*           N/A     46  43  87 CALM      30.25S
ANDALUSIA/OPP  CLEAR     47  41  80 CALM      30.28S
ANDALUSIA*       N/A     45  45 100 CALM      30.27F
FLORALA APT    CLEAR     43  39  86 CALM      30.29F
FLORALA*         N/A     43  43 100 CALM      30.25S

$$

FLZ001>006-270400-
WESTERN FLORIDA PANHANDLE

CITY           SKY/WX    TMP DP  RH WIND       PRES   REMARKS
PENSACOLA      CLEAR     54  45  71 E7        30.24F
NAS PENSACOLA  MOCLDY    56  49  77 E10       30.23F
MILTON         PTCLDY    48  42  80 NE5       30.26S
WHTNG S FIELD  PTCLDY    52  43  71 E7        30.27R


CITY           SKY/WX    TMP DP  RH WIND       PRES   REMARKS
WALNUT HILL*   NOT AVBL
JAY*           NOT AVBL
DUKE FIELD     CLEAR     44  42  92 E2        30.27F
CRESTVIEW      CLEAR     41  40  96 E3        30.28F
VALPARAISO     CLEAR     49  44  81 E6        30.27F
DESTIN         CLEAR     54  48  80 NE3       30.27S

$$

MSZ076-079-270400-
INTERIOR SOUTHEAST MISSISSIPPI

CITY           SKY/WX    TMP DP  RH WIND       PRES   REMARKS
LEAKESVILLE*   NOT AVBL
AGRICOLA*      NOT AVBL

$$

MARINE OBSERVATIONS

STATION/POSITION TIME  TEMP    WIND        PRES    WAVE
                       AIR SEA DIR/SP/G            HT/PER
                 (UTC) (F)     (DEG/KT/KT) (MB)    (FT/S)
PASCAGOULA       0300   60     100/ 14/ 23 1022.5R
PETIT BOIS ISLND 0300   62      80/ 13/ 17 1022.9R
GRAND BAY        0200   59      90/ 11     1024.0S
KATRINA CUT      0200   59      90/ 16     1024.0S
CEDAR POINT      0200   58      80/ 13     1024.0S
E DAUPHIN ISLAND 0300   59      80/ 17/ 18 1022.9F
MIDDLE BAY LIGHT 0200   58      90/ 14     1022.7F
USCG MOBILE BAY  0300   58 58   90/ 11/ 14 1022.6F
STATE DOCKS      0300                      1023.4F
MEAHER PARK      0200   58      70/  5     1024.0F
WEEKS BAY        0200   56                   N/A
FORT MORGAN      0300   60     100/ 11/ 16 1022.9R
12 S ORANGE BCH  0300   64 68   90/ 17/ 19 1022.6F   3/ 5
PENSACOLA BAY    0300           80/  5/  9 1024.4F
64 S DAUPHIN ISL 0300   70 74  100/ 19/ 23 1021.6F   3/ 4

$$

SELECTED LOCATIONS ACROSS THE REGION

CITY           SKY/WX    TMP DP  RH WIND       PRES   REMARKS
NEW ORLEANS    CLOUDY    63  56  78 E10       30.13F
GULFPORT       CLOUDY    61  53  75 E17       30.18F
PASCAGOULA AP  CLOUDY    60  49  66 E12       30.20F
PASCAGOULA*      N/A     59  50  72 E8        30.21S
HATTIESBURG    CLOUDY    58  50  75 SE6       30.20S
LAUREL         CLOUDY    57  46  67 E9        30.19F
MERIDIAN       PTCLDY    50  44  80 SE3       30.23S
JACKSON        CLOUDY    56  49  77 SE9       30.17S
MONTGOMERY     CLEAR     47  37  68 CALM      30.29S
TROY           CLEAR     42  39  89 CALM      30.30R
KINSTON*       NOT AVBL
GENEVA*          N/A     43  39  87 CALM      30.31S
ASHFORD*         N/A     45  45 100 CALM      30.27F
DOTHAN         CLEAR     47  41  80 CALM      30.32R
PANAMA CITY    CLEAR     48  44  86 CALM      30.28R

$$




USA.gov is the U.S. government's official web portal to all federal, state and local government web resources and services.